Location: *
(2.5500°S, 65.9667°W)
Time: 07:05:01
(UTC+00:00)

Explorer 7 - Pass Details

Date: 25 April 2024
Orbit: 467 x 625 km, 50.3° (Epoch: 26 May)

Event Time Altitude Azimuth Distance (km) Brightness Sun altitude
Rises 22:49:24 0° 309° (NW) 2,734 11.7 -7.3°
Reaches altitude 10° 22:51:50 10° 300° (WNW) 1,812 10.9 -7.9°
Maximum altitude 22:55:36 35° 233° (SW) 865 8.2 -8.8°
Drops below altitude 10° 22:59:13 10° 166° (SSE) 1,728 9.1 -9.7°
Enters shadow 23:01:19 - 158° (SSE) 2,522 9.8 -10.2°
Sets 23:01:29 0° 157° (SSE) 2,588 - -10.3°
